Frederick, MD

8:20 AM EDT on October 20, 2019 (GMT -0400)
Frederick Municipal

Weather History for KFDK - August, 2019

Change the Weather History Date:

Wednesday, August 7, 2019

  Actual Average (WUND) Record (WUND)
Temperature  
Mean Temperature 78 °F -  
Max Temperature 87 °F - - (-1)
Min Temperature 68 °F - - (-1)
Cooling Degree Days 12    
Growing Degree Days 28 (Base 50)    
Moisture  
Dew Point 70 °F    
Average Humidity 89    
Maximum Humidity 100    
Minimum Humidity 55    
Precipitation  
Precipitation 0.00 in - - ()
Sea Level Pressure  
Sea Level Pressure 29.84 in    
Wind  
Wind Speed 2 mph (SSE)    
Max Wind Speed 12 mph    
Max Gust Speed 23 mph    
Visibility 8 miles    
Events Rain , Thunderstorm    
Averages and records for this station are not official NWS values.
T = Trace of Precipitation, MM = Missing Value Source: NWS Daily Summary

Daily Weather History Graph

Daily Weather History Graph

Search for Another Location

Airport or City:

Astronomy

Aug. 07, 2019 Rise Set
Actual Time 6:14 AM EDT 8:15 PM EDT
Civil Twilight 5:45 AM EDT 8:44 PM EDT
Nautical Twilight 5:09 AM EDT 9:20 PM EDT
Astronomical Twilight 4:30 AM EDT 9:59 PM EDT
Moon 1:42 PM EDT (8/7) 12:02 AM EDT (8/7)
Length of Visible Light 14h 59m
Length of Day
14h 00m
Waxing Crescent, 49% of the Moon is Illuminated
Aug 7
Waxing Crescent
Aug 7
First Quarter
Aug 15
Full
Aug 23
Last Quarter
Aug 30
New

Hourly Weather History & Observations

Time (EDT) Temp. Heat Index Dew Point Humidity Pressure Visibility Wind Dir Wind Speed Gust Speed Precip Events Conditions
12:05 AM 71.6 °F - 69.8 °F 94% 29.85 in 10.0 mi Calm Calm - N/A   Clear
12:25 AM 69.8 °F - 69.8 °F 100% 29.85 in 7.0 mi Calm Calm - N/A   Clear
12:45 AM 69.8 °F - 69.8 °F 100% 29.85 in 10.0 mi Calm Calm - N/A   Clear
1:05 AM 69.8 °F - 69.8 °F 100% 29.85 in 4.0 mi SE 3.5 mph - N/A   Clear
1:25 AM 69.8 °F - 69.8 °F 100% 29.85 in 7.0 mi Calm Calm - N/A   Clear
1:45 AM 69.8 °F - 69.8 °F 100% 29.84 in 7.0 mi SE 4.6 mph - N/A   Clear
2:05 AM 69.8 °F - 69.8 °F 100% 29.84 in 10.0 mi Calm Calm - N/A   Clear
2:25 AM 71.6 °F - 69.8 °F 94% 29.85 in 10.0 mi SE 3.5 mph - N/A   Clear
2:45 AM 71.6 °F - 69.8 °F 94% 29.84 in 10.0 mi SE 3.5 mph - N/A   Clear
3:05 AM 71.6 °F - 69.8 °F 94% 29.85 in 10.0 mi Calm Calm - N/A   Clear
3:25 AM 71.6 °F - 69.8 °F 94% 29.85 in 10.0 mi Calm Calm - N/A   Scattered Clouds
3:45 AM 69.8 °F - 69.8 °F 100% 29.85 in 7.0 mi Calm Calm - N/A   Scattered Clouds
4:05 AM 69.8 °F - 68.0 °F 94% 29.84 in 10.0 mi Calm Calm - N/A   Scattered Clouds
4:25 AM 69.8 °F - 68.0 °F 94% 29.84 in 10.0 mi Calm Calm - N/A   Scattered Clouds
4:45 AM 69.8 °F - 68.0 °F 94% 29.84 in 7.0 mi Calm Calm - N/A   Clear
5:05 AM 69.8 °F - 68.0 °F 94% 29.84 in 5.0 mi Calm Calm - N/A   Scattered Clouds
5:25 AM 69.8 °F - 68.0 °F 94% 29.84 in 3.0 mi Calm Calm - N/A   Clear
5:45 AM 69.8 °F - 68.0 °F 94% 29.84 in 5.0 mi Calm Calm - N/A   Clear
6:05 AM 69.8 °F - 68.0 °F 94% 29.84 in 5.0 mi Calm Calm - N/A   Clear
6:25 AM 68.0 °F - 68.0 °F 100% 29.86 in 5.0 mi South 3.5 mph - N/A   Clear
6:45 AM 69.8 °F - 68.0 °F 94% 29.86 in 5.0 mi South 4.6 mph - N/A   Clear
6:47 AM 71.6 °F - 69.8 °F 94% 29.85 in 7.0 mi South 4.6 mph - N/A   Clear
7:47 AM 75.2 °F - 71.6 °F 89% 29.85 in 10.0 mi Calm Calm - N/A   Scattered Clouds
8:47 AM 77.0 °F - 71.6 °F 83% 29.86 in 7.0 mi Calm Calm - N/A   Scattered Clouds
9:47 AM 80.6 °F 84.6 °F 71.6 °F 74% 29.85 in 7.0 mi SW 4.6 mph - N/A   Scattered Clouds
10:47 AM 82.4 °F 86.3 °F 69.8 °F 66% 29.84 in 7.0 mi Calm Calm - N/A   Scattered Clouds
11:47 AM 86.0 °F 90.4 °F 69.8 °F 58% 29.84 in 10.0 mi West 6.9 mph - N/A   Scattered Clouds
12:47 PM 87.8 °F 92.6 °F 69.8 °F 55% 29.82 in 10.0 mi West 4.6 mph - N/A   Mostly Cloudy
1:30 PM 84.2 °F 86.6 °F 66.2 °F 55% 29.81 in 5.0 mi NNW 6.9 mph - N/A Rain , Thunderstorm Thunderstorms and Rain
1:47 PM 73.4 °F - 69.8 °F 88% 29.82 in 4.0 mi East 11.5 mph 23.0 mph N/A Rain , Thunderstorm Thunderstorms and Rain
2:09 PM 73.4 °F - 69.8 °F 88% 29.81 in 6.0 mi ESE 4.6 mph - N/A Rain , Thunderstorm Light Thunderstorms and Rain
2:47 PM 75.2 °F - 69.8 °F 83% 29.80 in 10.0 mi ENE 5.8 mph - N/A Thunderstorm Overcast
3:47 PM 73.4 °F - 69.8 °F 88% 29.82 in 5.0 mi SW 8.1 mph - N/A Rain , Thunderstorm Light Thunderstorms and Rain
4:47 PM 75.2 °F - 71.6 °F 89% 29.80 in 10.0 mi South 3.5 mph - N/A Thunderstorm Mostly Cloudy
5:47 PM 80.6 °F 83.9 °F 69.8 °F 70% 29.78 in 10.0 mi Calm Calm - N/A   Clear
6:47 PM 82.4 °F 86.3 °F 69.8 °F 66% 29.80 in 10.0 mi Calm Calm - N/A   Clear
7:47 PM 78.8 °F - 71.6 °F 78% 29.81 in 10.0 mi Calm Calm - N/A   Scattered Clouds
9:25 PM 73.4 °F - 69.8 °F 88% 29.82 in 10.0 mi Calm Calm - N/A   Clear
9:45 PM 71.6 °F - 69.8 °F 94% 29.82 in 10.0 mi Calm Calm - N/A   Clear
10:05 PM 71.6 °F - 69.8 °F 94% 29.83 in 10.0 mi Calm Calm - N/A   Clear
10:25 PM 71.6 °F - 69.8 °F 94% 29.84 in 10.0 mi SE 3.5 mph - N/A   Clear
10:45 PM 71.6 °F - 69.8 °F 94% 29.85 in 10.0 mi Calm Calm - N/A   Clear
11:05 PM 71.6 °F - 69.8 °F 94% 29.85 in 10.0 mi Calm Calm - N/A   Clear
11:25 PM 71.6 °F - 69.8 °F 94% 29.85 in 10.0 mi SSE 3.5 mph - N/A   Clear